Regional Weather Roundup
Issued by NWS

Home | Current Version | Previous Version | Graphics & Text | Print | Product List | Glossary On
Versions: 1 2 3 4 5 6 7 8 9 10 11 12 13 14 15 16 17 18 19 20 21 22 23 24 25 26 27
000
ASUS45 KBOI 162210
RWRID
WEATHER ROUNDUP FOR IDAHO
NATIONAL WEATHER SERVICE BOISE ID
400 PM MDT WED APR 16 2014

NOTE: "FAIR" INDICATES FEW OR NO CLOUDS BELOW 12000 FEET
WITH NO SIGNIFICANT WEATHER AND/OR OBSTRUCTIONS TO VISIBILITY

IDZ012-014-162300-
SOUTHWEST IDAHO


CITY           SKY/WX    TMP DP  RH WIND       PRES   REMARKS
BOISE          SUNNY     59  16  18 NW8       30.01F
CALDWELL       SUNNY     61  25  25 N8        30.03F
MOUNTAIN HOME  SUNNY     60  14  16 NW13G18   29.99F
$$

IDZ016-017-162300-
SOUTHCENTRAL IDAHO


CITY           SKY/WX    TMP DP  RH WIND       PRES   REMARKS
BURLEY         SUNNY     56  15  20 W12G21    29.98F
JEROME         SUNNY     57  14  18 W14       30.00F
TWIN FALLS     SUNNY     60  12  15 W14G21    30.00F
$$

IDZ019>023-162300-
SOUTHEAST IDAHO


CITY           SKY/WX    TMP DP  RH WIND       PRES   REMARKS
IDAHO FALLS    MOSUNNY   52  15  23 VRB6G17   29.99F
POCATELLO      MOSUNNY   54  12  18 SW9G21    29.99F
REXBURG        MOSUNNY   50  10  20 VRB5      29.98F
$$

IDZ006-010-011-018-031-032-162300-
CENTRAL IDAHO MOUNTAINS


CITY           SKY/WX    TMP DP  RH WIND       PRES   REMARKS
MCCALL         CLOUDY    47  15  27 W9        30.00S
HAILEY         MOSUNNY   52  18  25 SE7       29.98F
STANLEY          N/A     43  10  26 SW9       30.00F
SALMON         MOSUNNY   54  18  24 E3        29.95S
CHALLIS        MOSUNNY   52   9  17 VRB5      29.94F
$$

IDZ002-004-006-007-026-162300-
NORTHERN IDAHO


CITY           SKY/WX    TMP DP  RH WIND       PRES   REMARKS
LEWISTON       CLOUDY    58  31  35 VRB6      30.02F
LOWELL           N/A     59  34  39 VRB3      30.02F
COEUR D`ALENE  CLOUDY    46  39  76 S5        30.02F
MULLAN PASS    CLOUDY    31  29  92 VRB7      29.97S WCI  24
$$



USA.gov is the U.S. government's official web portal to all federal, state and local government web resources and services.